Location: ?????????
(38.0736°N, 23.2119°E)
Time: 13:00:36
(UTC+00:00)

Atlas Centaur 2 - Pass Details

Date: 18 April 2024
Orbit: 458 x 1278 km, 30.4° (Epoch: 17 May)

Event Time Altitude Azimuth Distance (km) Brightness Sun altitude
Rises 19:31:46 0° 252° (WSW) 3,237 5.7 -26.0°
Reaches altitude 10° 19:34:43 10° 243° (WSW) 2,158 4.6 -26.5°
Enters shadow 19:36:36 19° 229° (SW) 1,531 3.6 -26.7°
